Location: Cicognara
(44.9500°N, 10.4667°E)
Time: 22:58:55
(UTC+00:00)

Okean 1 Rocket - Pass Details

Date: 20 June 2021
Orbit: 607 x 634 km, 82.5° (Epoch: 23 July)

Event Time Altitude Azimuth Distance (km) Brightness Sun altitude
Rises 19:57:09 0° 344° (NNW) 2,887 7.7 -7.5°
Reaches altitude 10° 19:59:28 10° 337° (NNW) 1,981 6.9 -7.8°
Maximum altitude 20:03:34 41° 268° (W) 903 4.3 -8.3°
Drops below altitude 10° 20:07:41 10° 198° (SSW) 1,980 5.4 -8.8°
Sets 20:09:59 0° 191° (SSW) 2,885 6.1 -9.1°
